Location: Wanzleben
(52.0609°N, 11.4408°E)
Time: 02:54:29
(UTC+00:00)

Cosmos 2082 Rocket - Pass Details

Date: 18 September 2020
Orbit: 834 x 853 km, 71.0° (Epoch: 22 October)

Event Time Altitude Azimuth Distance (km) Brightness Sun altitude
Rises 18:54:13 0° 328° (NNW) 3,394 6.3 -14.7°
Reaches altitude 10° 18:57:18 10° 345° (NNW) 2,457 5.1 -15.2°
Maximum altitude 19:01:30 21° 33° (NNE) 1,809 3.8 -15.8°
Enters shadow 19:04:23 15° 70° (ENE) 2,142 3.9 -16.2°
